Погода в Могойтуе

Россия / Забайкальский край     50°21′02″N   113°50′19″E
темп.,
°C
ветер,
м/с
пор.,
м/с
влажн.,
%
обл.,
%
осадки,
мм/ч
давл.,
гПа
погр.,
м
7 мая, пт
пт700:00+3з385491 0.0 1008184
03:000з375214 0.0 1006138
06:00+1зюз2246100 0.0 100433
09:00+1зюз2388100 0.8 1002444
12:00+4с566297 0.9 10001189
15:00+7с7943100 1.6 9992057
18:00+5с6973100 0.5 10021025
21:00+5с367763 0.9 1004262
8 мая, сб
сб800:00+2зсз22798 0.0 100728
03:00+1зсз22795 0.0 100912
06:000зсз22852 0.0 101113
09:00+5сз466528 0.0 1010466
12:00+10ссз6936100 0.3 10082595
15:00+11ссз6830100 0.3 10062675
18:00+12ссз692862 0.0 10042702
21:00+8с224142 0.0 100613
9 мая, вс
вс900:00+6зюз1145100 0.0 100710
03:00+4з114996 0.0 100710
06:00+3зсз2460100 0.0 100975
09:00+7сз564670 0.0 1009750
12:00+11ссз4631100 0.0 10072574
15:00+13сз5527100 0.0 10052781
18:00+12зсз3432100 0.0 10062272
21:00+7ююз116299 0.6 100920
10 мая, пн
пн1000:00+5юз22705 0.3 101011
03:00+4з21775 0.3 101110
06:00+2юз118236 0.0 101110
09:00+8юв235692 0.0 1010510
12:00+11юв5541100 0.0 10081454
15:00+14ююв7937100 0.0 10042174
18:00+12юв5748100 0.1 10031577
21:00+3зсз101293100 3.4 1005388
11 мая, вт
вт1100:00+1з71299100 11.8 1006504
03:00+1зюз6119799 12.8 1005698
06:00+1зюз2597100 0.1 1004345
09:00+1с49100100 2.6 1005342
12:00+3с51399100 3.7 1006987
15:00+7св81375100 4.4 10051379
18:00+10св485896 0.1 10041424
21:00+6ю227479 0.2 100711